owner,sensor,date,latitude,longitude,vertical_datum,wind_speed,wind_to_direction,wind_speed_of_gust,qcFlag 
WAVCIS,ioos:station:WAVCIS:CSI06:1,2011-02-01T00:00:00Z,28.8667,-90.4833,10.0,5.562,96.0,,'11111222,11111222,99999999' 
WAVCIS,ioos:station:WAVCIS:CSI06:1,2011-02-01T01:00:00Z,28.8667,-90.4833,10.0,5.583,107.0,,'11111222,11111222,99999999' 
WAVCIS,ioos:station:WAVCIS:CSI06:1,2011-02-01T02:00:00Z,28.8667,-90.4833,10.0,6.77,100.0,,'11111222,11111222,99999999' 
WAVCIS,ioos:station:WAVCIS:CSI06:1,2011-02-01T03:00:00Z,28.8667,-90.4833,10.0,6.849,89.0,,'11111222,11111222,99999999' 
WAVCIS,ioos:station:WAVCIS:CSI06:1,2011-02-01T04:00:00Z,28.8667,-90.4833,10.0,7.51,102.0,,'11111222,11111222,99999999' 
WAVCIS,ioos:station:WAVCIS:CSI06:1,2011-02-01T05:00:00Z,28.8667,-90.4833,10.0,7.8,106.0,,'11111222,11111222,99999999' 
WAVCIS,ioos:station:WAVCIS:CSI06:1,2011-02-01T06:00:00Z,28.8667,-90.4833,10.0,8.37,103.0,,'11111222,11111222,99999999' 
WAVCIS,ioos:station:WAVCIS:CSI06:1,2011-02-01T07:00:00Z,28.8667,-90.4833,10.0,7.49,110.0,,'11111222,11111222,99999999' 
WAVCIS,ioos:station:WAVCIS:CSI06:1,2011-02-01T08:00:00Z,28.8667,-90.4833,10.0,7.1,104.0,,'11111222,11111222,99999999' 
WAVCIS,ioos:station:WAVCIS:CSI06:1,2011-02-01T09:00:00Z,28.8667,-90.4833,10.0,8.22,111.0,,'11111222,11111222,99999999' 
WAVCIS,ioos:station:WAVCIS:CSI06:1,2011-02-01T10:00:00Z,28.8667,-90.4833,10.0,9.84,119.0,,'11111222,11111222,99999999' 
WAVCIS,ioos:station:WAVCIS:CSI06:1,2011-02-01T11:00:00Z,28.8667,-90.4833,10.0,8.89,125.0,,'11111222,11111222,99999999' 
WAVCIS,ioos:station:WAVCIS:CSI06:1,2011-02-01T12:00:00Z,28.8667,-90.4833,10.0,9.53,124.0,,'11111222,11111222,99999999' 
WAVCIS,ioos:station:WAVCIS:CSI06:1,2011-02-01T13:00:00Z,28.8667,-90.4833,10.0,9.24,120.0,,'11111222,11111222,99999999' 
WAVCIS,ioos:station:WAVCIS:CSI06:1,2011-02-01T14:00:00Z,28.8667,-90.4833,10.0,8.77,116.0,,'11111222,11111222,99999999' 
WAVCIS,ioos:station:WAVCIS:CSI06:1,2011-02-01T15:00:00Z,28.8667,-90.4833,10.0,10.56,131.0,,'11111222,11111222,99999999' 
WAVCIS,ioos:station:WAVCIS:CSI06:1,2011-02-01T16:00:00Z,28.8667,-90.4833,10.0,12.14,150.0,,'11111222,11111222,99999999' 
WAVCIS,ioos:station:WAVCIS:CSI06:1,2011-02-01T17:00:00Z,28.8667,-90.4833,10.0,11.9,157.0,,'11111222,11111222,99999999' 
WAVCIS,ioos:station:WAVCIS:CSI06:1,2011-02-01T18:00:00Z,28.8667,-90.4833,10.0,13.2,162.0,,'11111222,11111222,99999999' 
WAVCIS,ioos:station:WAVCIS:CSI06:1,2011-02-01T19:00:00Z,28.8667,-90.4833,10.0,16.1,179.0,,'11111222,11111222,99999999' 
WAVCIS,ioos:station:WAVCIS:CSI06:1,2011-02-01T20:00:00Z,28.8667,-90.4833,10.0,14.09,191.0,,'11111222,11111222,99999999' 
WAVCIS,ioos:station:WAVCIS:CSI06:1,2011-02-01T21:00:00Z,28.8667,-90.4833,10.0,14.39,181.0,,'11111222,11111222,99999999' 
WAVCIS,ioos:station:WAVCIS:CSI06:1,2011-02-01T22:00:00Z,28.8667,-90.4833,10.0,8.26,278.0,,'11111222,11111222,99999999' 
WAVCIS,ioos:station:WAVCIS:CSI06:1,2011-02-01T23:00:00Z,28.8667,-90.4833,10.0,14.18,281.0,,'11111222,11111222,99999999' 
WAVCIS,ioos:station:WAVCIS:CSI06:1,2011-02-02T00:00:00Z,28.8667,-90.4833,10.0,15.25,289.0,,'11111222,11111222,99999999' 
WAVCIS,ioos:station:WAVCIS:CSI06:1,2011-02-02T01:00:00Z,28.8667,-90.4833,10.0,11.94,299.0,,'11111222,11111222,99999999' 
WAVCIS,ioos:station:WAVCIS:CSI06:1,2011-02-02T02:00:00Z,28.8667,-90.4833,10.0,11.9,306.0,,'11111222,11111222,99999999' 
WAVCIS,ioos:station:WAVCIS:CSI06:1,2011-02-02T03:00:00Z,28.8667,-90.4833,10.0,12.8,313.0,,'11111222,11111222,99999999' 
WAVCIS,ioos:station:WAVCIS:CSI06:1,2011-02-02T04:00:00Z,28.8667,-90.4833,10.0,12.54,321.0,,'11111222,11111222,99999999' 
WAVCIS,ioos:station:WAVCIS:CSI06:1,2011-02-02T05:00:00Z,28.8667,-90.4833,10.0,10.47,332.0,,'11111222,11111222,99999999' 
WAVCIS,ioos:station:WAVCIS:CSI06:1,2011-02-02T06:00:00Z,28.8667,-90.4833,10.0,11.59,335.0,,'11111222,11111222,99999999' 
WAVCIS,ioos:station:WAVCIS:CSI06:1,2011-02-02T07:00:00Z,28.8667,-90.4833,10.0,11.2,336.0,,'11111222,11111222,99999999' 
WAVCIS,ioos:station:WAVCIS:CSI06:1,2011-02-02T08:00:00Z,28.8667,-90.4833,10.0,8.14,355.0,,'11111222,11111222,99999999' 
WAVCIS,ioos:station:WAVCIS:CSI06:1,2011-02-02T09:00:00Z,28.8667,-90.4833,10.0,10.11,8.0,,'11111222,11111222,99999999' 
WAVCIS,ioos:station:WAVCIS:CSI06:1,2011-02-02T10:00:00Z,28.8667,-90.4833,10.0,9.17,8.0,,'11111222,11111222,99999999' 
WAVCIS,ioos:station:WAVCIS:CSI06:1,2011-02-02T11:00:00Z,28.8667,-90.4833,10.0,8.93,5.0,,'11111222,11111222,99999999' 
WAVCIS,ioos:station:WAVCIS:CSI06:1,2011-02-02T12:00:00Z,28.8667,-90.4833,10.0,7.87,346.0,,'11111222,11111222,99999999' 
WAVCIS,ioos:station:WAVCIS:CSI06:1,2011-02-02T13:00:00Z,28.8667,-90.4833,10.0,7.77,1.0,,'11111222,11111222,99999999' 
WAVCIS,ioos:station:WAVCIS:CSI06:1,2011-02-02T14:00:00Z,28.8667,-90.4833,10.0,9.01,353.0,,'11111222,11111222,99999999' 
WAVCIS,ioos:station:WAVCIS:CSI06:1,2011-02-02T15:00:00Z,28.8667,-90.4833,10.0,8.28,1.0,,'11111222,11111222,99999999' 
WAVCIS,ioos:station:WAVCIS:CSI06:1,2011-02-02T16:00:00Z,28.8667,-90.4833,10.0,7.3,0.0,,'11111222,11111222,99999999' 
WAVCIS,ioos:station:WAVCIS:CSI06:1,2011-02-02T17:00:00Z,28.8667,-90.4833,10.0,8.19,6.0,,'11111222,11111222,99999999' 
WAVCIS,ioos:station:WAVCIS:CSI06:1,2011-02-02T18:00:00Z,28.8667,-90.4833,10.0,9.2,12.0,,'11111222,11111222,99999999' 
WAVCIS,ioos:station:WAVCIS:CSI06:1,2011-02-02T19:00:00Z,28.8667,-90.4833,10.0,10.6,6.0,,'11111222,11111222,99999999' 
WAVCIS,ioos:station:WAVCIS:CSI06:1,2011-02-02T20:00:00Z,28.8667,-90.4833,10.0,9.8,6.0,,'11111222,11111222,99999999' 
WAVCIS,ioos:station:WAVCIS:CSI06:1,2011-02-02T21:00:00Z,28.8667,-90.4833,10.0,11.16,9.0,,'11111222,11111222,99999999' 
WAVCIS,ioos:station:WAVCIS:CSI06:1,2011-02-02T22:00:00Z,28.8667,-90.4833,10.0,11.96,13.0,,'11111222,11111222,99999999' 
WAVCIS,ioos:station:WAVCIS:CSI06:1,2011-02-02T23:00:00Z,28.8667,-90.4833,10.0,13.09,9.0,,'11111222,11111222,99999999' 
WAVCIS,ioos:station:WAVCIS:CSI06:1,2011-02-03T00:00:00Z,28.8667,-90.4833,10.0,13.03,18.0,,'11111222,11111222,99999999' 
WAVCIS,ioos:station:WAVCIS:CSI06:1,2011-02-03T01:00:00Z,28.8667,-90.4833,10.0,12.37,20.0,,'11111222,11111222,99999999' 
WAVCIS,ioos:station:WAVCIS:CSI06:1,2011-02-03T02:00:00Z,28.8667,-90.4833,10.0,11.78,15.0,,'11111222,11111222,99999999' 
WAVCIS,ioos:station:WAVCIS:CSI06:1,2011-02-03T03:00:00Z,28.8667,-90.4833,10.0,11.48,27.0,,'11111222,11111222,99999999' 
WAVCIS,ioos:station:WAVCIS:CSI06:1,2011-02-03T04:00:00Z,28.8667,-90.4833,10.0,12.73,39.0,,'11111222,11111222,99999999' 
WAVCIS,ioos:station:WAVCIS:CSI06:1,2011-02-03T05:00:00Z,28.8667,-90.4833,10.0,10.49,23.0,,'11111222,11111222,99999999' 
WAVCIS,ioos:station:WAVCIS:CSI06:1,2011-02-03T06:00:00Z,28.8667,-90.4833,10.0,12.72,22.0,,'11111222,11111222,99999999' 
WAVCIS,ioos:station:WAVCIS:CSI06:1,2011-02-03T07:00:00Z,28.8667,-90.4833,10.0,11.24,19.0,,'11111222,11111222,99999999' 
WAVCIS,ioos:station:WAVCIS:CSI06:1,2011-02-03T08:00:00Z,28.8667,-90.4833,10.0,10.24,29.0,,'11111222,11111222,99999999' 
WAVCIS,ioos:station:WAVCIS:CSI06:1,2011-02-03T09:00:00Z,28.8667,-90.4833,10.0,10.54,29.0,,'11111222,11111222,99999999' 
WAVCIS,ioos:station:WAVCIS:CSI06:1,2011-02-03T10:00:00Z,28.8667,-90.4833,10.0,10.95,34.0,,'11111222,11111222,99999999' 
WAVCIS,ioos:station:WAVCIS:CSI06:1,2011-02-03T11:00:00Z,28.8667,-90.4833,10.0,9.64,29.0,,'11111222,11111222,99999999' 
WAVCIS,ioos:station:WAVCIS:CSI06:1,2011-02-03T12:00:00Z,28.8667,-90.4833,10.0,8.93,14.0,,'11111222,11111222,99999999' 
WAVCIS,ioos:station:WAVCIS:CSI06:1,2011-02-03T13:00:00Z,28.8667,-90.4833,10.0,10.49,20.0,,'11111222,11111222,99999999' 
WAVCIS,ioos:station:WAVCIS:CSI06:1,2011-02-03T14:00:00Z,28.8667,-90.4833,10.0,9.36,25.0,,'11111222,11111222,99999999' 
WAVCIS,ioos:station:WAVCIS:CSI06:1,2011-02-03T15:00:00Z,28.8667,-90.4833,10.0,9.42,34.0,,'11111222,11111222,99999999' 
WAVCIS,ioos:station:WAVCIS:CSI06:1,2011-02-03T16:00:00Z,28.8667,-90.4833,10.0,9.39,30.0,,'11111222,11111222,99999999' 
WAVCIS,ioos:station:WAVCIS:CSI06:1,2011-02-03T17:00:00Z,28.8667,-90.4833,10.0,10.65,22.0,,'11111222,11111222,99999999' 
WAVCIS,ioos:station:WAVCIS:CSI06:1,2011-02-03T18:00:00Z,28.8667,-90.4833,10.0,9.15,12.0,,'11111222,11111222,99999999' 
WAVCIS,ioos:station:WAVCIS:CSI06:1,2011-02-03T19:00:00Z,28.8667,-90.4833,10.0,10.2,17.0,,'11111222,11111222,99999999' 
WAVCIS,ioos:station:WAVCIS:CSI06:1,2011-02-03T20:00:00Z,28.8667,-90.4833,10.0,10.21,13.0,,'11111222,11111222,99999999' 
WAVCIS,ioos:station:WAVCIS:CSI06:1,2011-02-03T21:00:00Z,28.8667,-90.4833,10.0,10.78,27.0,,'11111222,11111222,99999999' 
WAVCIS,ioos:station:WAVCIS:CSI06:1,2011-02-03T22:00:00Z,28.8667,-90.4833,10.0,11.26,22.0,,'11111222,11111222,99999999' 
WAVCIS,ioos:station:WAVCIS:CSI06:1,2011-02-03T23:00:00Z,28.8667,-90.4833,10.0,11.3,40.0,,'11111222,11111222,99999999' 
WAVCIS,ioos:station:WAVCIS:CSI06:1,2011-02-04T00:00:00Z,28.8667,-90.4833,10.0,10.32,26.0,,'11111222,11111222,99999999' 
WAVCIS,ioos:station:WAVCIS:CSI06:1,2011-02-04T01:00:00Z,28.8667,-90.4833,10.0,10.46,38.0,,'11111222,11111222,99999999' 
WAVCIS,ioos:station:WAVCIS:CSI06:1,2011-02-04T02:00:00Z,28.8667,-90.4833,10.0,11.47,33.0,,'11111222,11111222,99999999' 
WAVCIS,ioos:station:WAVCIS:CSI06:1,2011-02-04T03:00:00Z,28.8667,-90.4833,10.0,11.3,35.0,,'11111222,11111222,99999999' 
WAVCIS,ioos:station:WAVCIS:CSI06:1,2011-02-04T04:00:00Z,28.8667,-90.4833,10.0,11.63,51.0,,'11111222,11111222,99999999' 
WAVCIS,ioos:station:WAVCIS:CSI06:1,2011-02-04T05:00:00Z,28.8667,-90.4833,10.0,10.75,42.0,,'11111222,11111222,99999999' 
WAVCIS,ioos:station:WAVCIS:CSI06:1,2011-02-04T06:00:00Z,28.8667,-90.4833,10.0,11.02,32.0,,'11111222,11111222,99999999' 
WAVCIS,ioos:station:WAVCIS:CSI06:1,2011-02-04T07:00:00Z,28.8667,-90.4833,10.0,11.63,38.0,,'11111222,11111222,99999999' 
WAVCIS,ioos:station:WAVCIS:CSI06:1,2011-02-04T08:00:00Z,28.8667,-90.4833,10.0,11.3,43.0,,'11111222,11111222,99999999' 
WAVCIS,ioos:station:WAVCIS:CSI06:1,2011-02-04T09:00:00Z,28.8667,-90.4833,10.0,10.17,34.0,,'11111222,11111222,99999999' 
WAVCIS,ioos:station:WAVCIS:CSI06:1,2011-02-04T10:00:00Z,28.8667,-90.4833,10.0,13.02,59.0,,'11111222,11111222,99999999' 
WAVCIS,ioos:station:WAVCIS:CSI06:1,2011-02-04T11:00:00Z,28.8667,-90.4833,10.0,9.25,56.0,,'11111222,11111222,99999999' 
WAVCIS,ioos:station:WAVCIS:CSI06:1,2011-02-04T12:00:00Z,28.8667,-90.4833,10.0,9.18,9.0,,'11111222,11111222,99999999' 
WAVCIS,ioos:station:WAVCIS:CSI06:1,2011-02-04T13:00:00Z,28.8667,-90.4833,10.0,8.18,5.0,,'11111222,11111222,99999999' 
WAVCIS,ioos:station:WAVCIS:CSI06:1,2011-02-04T14:00:00Z,28.8667,-90.4833,10.0,12.85,15.0,,'11111222,11111222,99999999' 
WAVCIS,ioos:station:WAVCIS:CSI06:1,2011-02-04T15:00:00Z,28.8667,-90.4833,10.0,8.48,2.0,,'11111222,11111222,99999999' 
WAVCIS,ioos:station:WAVCIS:CSI06:1,2011-02-04T16:00:00Z,28.8667,-90.4833,10.0,7.98,3.0,,'11111222,11111222,99999999' 
WAVCIS,ioos:station:WAVCIS:CSI06:1,2011-02-04T17:00:00Z,28.8667,-90.4833,10.0,9.89,336.0,,'11111222,11111222,99999999' 
WAVCIS,ioos:station:WAVCIS:CSI06:1,2011-02-04T18:00:00Z,28.8667,-90.4833,10.0,8.04,342.0,,'11111222,11111222,99999999' 
WAVCIS,ioos:station:WAVCIS:CSI06:1,2011-02-04T19:00:00Z,28.8667,-90.4833,10.0,8.17,337.0,,'11111222,11111222,99999999' 
WAVCIS,ioos:station:WAVCIS:CSI06:1,2011-02-04T20:00:00Z,28.8667,-90.4833,10.0,9.33,330.0,,'11111222,11111222,99999999' 
WAVCIS,ioos:station:WAVCIS:CSI06:1,2011-02-04T21:00:00Z,28.8667,-90.4833,10.0,10.07,331.0,,'11111222,11111222,99999999' 
WAVCIS,ioos:station:WAVCIS:CSI06:1,2011-02-04T22:00:00Z,28.8667,-90.4833,10.0,9.71,326.0,,'11111222,11111222,99999999' 
WAVCIS,ioos:station:WAVCIS:CSI06:1,2011-02-04T23:00:00Z,28.8667,-90.4833,10.0,5.948,333.0,,'11111222,11111222,99999999' 
WAVCIS,ioos:station:WAVCIS:CSI06:1,2011-02-05T00:00:00Z,28.8667,-90.4833,10.0,9.2,305.0,,'11111222,11111222,99999999' 
WAVCIS,ioos:station:WAVCIS:CSI06:1,2011-02-05T01:00:00Z,28.8667,-90.4833,10.0,10.39,299.0,,'11111222,11111222,99999999' 
WAVCIS,ioos:station:WAVCIS:CSI06:1,2011-02-05T02:00:00Z,28.8667,-90.4833,10.0,12.2,300.0,,'11111222,11111222,99999999' 
WAVCIS,ioos:station:WAVCIS:CSI06:1,2011-02-05T03:00:00Z,28.8667,-90.4833,10.0,12.42,296.0,,'11111222,11111222,99999999' 
WAVCIS,ioos:station:WAVCIS:CSI06:1,2011-02-05T04:00:00Z,28.8667,-90.4833,10.0,13.53,294.0,,'11111222,11111222,99999999' 
WAVCIS,ioos:station:WAVCIS:CSI06:1,2011-02-05T05:00:00Z,28.8667,-90.4833,10.0,14.52,299.0,,'11111222,11111222,99999999' 
WAVCIS,ioos:station:WAVCIS:CSI06:1,2011-02-05T06:00:00Z,28.8667,-90.4833,10.0,13.86,293.0,,'11111222,11111222,99999999' 
WAVCIS,ioos:station:WAVCIS:CSI06:1,2011-02-05T07:00:00Z,28.8667,-90.4833,10.0,14.25,289.0,,'11111222,11111222,99999999' 
WAVCIS,ioos:station:WAVCIS:CSI06:1,2011-02-05T08:00:00Z,28.8667,-90.4833,10.0,14.28,300.0,,'11111222,11111222,99999999' 
WAVCIS,ioos:station:WAVCIS:CSI06:1,2011-02-05T09:00:00Z,28.8667,-90.4833,10.0,15.11,301.0,,'11111222,11111222,99999999' 
WAVCIS,ioos:station:WAVCIS:CSI06:1,2011-02-05T10:00:00Z,28.8667,-90.4833,10.0,16.04,305.0,,'11111222,11111222,99999999' 
WAVCIS,ioos:station:WAVCIS:CSI06:1,2011-02-05T11:00:00Z,28.8667,-90.4833,10.0,16.08,308.0,,'11111222,11111222,99999999' 
WAVCIS,ioos:station:WAVCIS:CSI06:1,2011-02-05T12:00:00Z,28.8667,-90.4833,10.0,15.6,321.0,,'11111222,11111222,99999999' 
WAVCIS,ioos:station:WAVCIS:CSI06:1,2011-02-05T13:00:00Z,28.8667,-90.4833,10.0,16.88,325.0,,'11111222,11111222,99999999' 
WAVCIS,ioos:station:WAVCIS:CSI06:1,2011-02-05T14:00:00Z,28.8667,-90.4833,10.0,12.29,329.0,,'11111222,11111222,99999999' 
WAVCIS,ioos:station:WAVCIS:CSI06:1,2011-02-05T15:00:00Z,28.8667,-90.4833,10.0,9.7,330.0,,'11111222,11111222,99999999' 
WAVCIS,ioos:station:WAVCIS:CSI06:1,2011-02-05T16:00:00Z,28.8667,-90.4833,10.0,8.48,318.0,,'11111222,11111222,99999999' 
WAVCIS,ioos:station:WAVCIS:CSI06:1,2011-02-05T17:00:00Z,28.8667,-90.4833,10.0,8.05,315.0,,'11111222,11111222,99999999' 
WAVCIS,ioos:station:WAVCIS:CSI06:1,2011-02-05T18:00:00Z,28.8667,-90.4833,10.0,7.63,306.0,,'11111222,11111222,99999999' 
WAVCIS,ioos:station:WAVCIS:CSI06:1,2011-02-05T19:00:00Z,28.8667,-90.4833,10.0,9.05,302.0,,'11111222,11111222,99999999' 
WAVCIS,ioos:station:WAVCIS:CSI06:1,2011-02-05T20:00:00Z,28.8667,-90.4833,10.0,8.92,306.0,,'11111222,11111222,99999999' 
WAVCIS,ioos:station:WAVCIS:CSI06:1,2011-02-05T21:00:00Z,28.8667,-90.4833,10.0,6.383,292.0,,'11111222,11111222,99999999' 
WAVCIS,ioos:station:WAVCIS:CSI06:1,2011-02-05T22:00:00Z,28.8667,-90.4833,10.0,5.598,277.0,,'11111222,11111222,99999999' 
WAVCIS,ioos:station:WAVCIS:CSI06:1,2011-02-05T23:00:00Z,28.8667,-90.4833,10.0,4.896,272.0,,'11111222,11111222,99999999' 
WAVCIS,ioos:station:WAVCIS:CSI06:1,2011-02-06T00:00:00Z,28.8667,-90.4833,10.0,5.206,283.0,,'11111222,11111222,99999999' 
WAVCIS,ioos:station:WAVCIS:CSI06:1,2011-02-06T01:00:00Z,28.8667,-90.4833,10.0,3.324,280.0,,'11111222,11111222,99999999' 
WAVCIS,ioos:station:WAVCIS:CSI06:1,2011-02-06T02:00:00Z,28.8667,-90.4833,10.0,2.273,280.0,,'11111222,11111222,99999999' 
WAVCIS,ioos:station:WAVCIS:CSI06:1,2011-02-06T03:00:00Z,28.8667,-90.4833,10.0,1.615,261.0,,'11111222,11111222,99999999' 
WAVCIS,ioos:station:WAVCIS:CSI06:1,2011-02-06T04:00:00Z,28.8667,-90.4833,10.0,1.569,192.0,,'11111222,11111222,99999999' 
WAVCIS,ioos:station:WAVCIS:CSI06:1,2011-02-06T05:00:00Z,28.8667,-90.4833,10.0,2.969,180.0,,'11111222,11111222,99999999' 
WAVCIS,ioos:station:WAVCIS:CSI06:1,2011-02-06T06:00:00Z,28.8667,-90.4833,10.0,4.479,212.0,,'11111222,11111222,99999999' 
WAVCIS,ioos:station:WAVCIS:CSI06:1,2011-02-06T07:00:00Z,28.8667,-90.4833,10.0,4.214,171.0,,'11111222,11111222,99999999' 
WAVCIS,ioos:station:WAVCIS:CSI06:1,2011-02-06T08:00:00Z,28.8667,-90.4833,10.0,4.604,185.0,,'11111222,11111222,99999999' 
WAVCIS,ioos:station:WAVCIS:CSI06:1,2011-02-06T09:00:00Z,28.8667,-90.4833,10.0,4.298,193.0,,'11111222,11111222,99999999' 
WAVCIS,ioos:station:WAVCIS:CSI06:1,2011-02-06T10:00:00Z,28.8667,-90.4833,10.0,4.674,200.0,,'11111222,11111222,99999999' 
WAVCIS,ioos:station:WAVCIS:CSI06:1,2011-02-06T11:00:00Z,28.8667,-90.4833,10.0,4.592,226.0,,'11111222,11111222,99999999' 
WAVCIS,ioos:station:WAVCIS:CSI06:1,2011-02-06T12:00:00Z,28.8667,-90.4833,10.0,3.613,197.0,,'11111222,11111222,99999999' 
WAVCIS,ioos:station:WAVCIS:CSI06:1,2011-02-06T13:00:00Z,28.8667,-90.4833,10.0,3.223,200.0,,'11111222,11111222,99999999' 
WAVCIS,ioos:station:WAVCIS:CSI06:1,2011-02-06T14:00:00Z,28.8667,-90.4833,10.0,3.528,172.0,,'11111222,11111222,99999999' 
WAVCIS,ioos:station:WAVCIS:CSI06:1,2011-02-06T15:00:00Z,28.8667,-90.4833,10.0,3.701,167.0,,'11111222,11111222,99999999' 
WAVCIS,ioos:station:WAVCIS:CSI06:1,2011-02-06T16:00:00Z,28.8667,-90.4833,10.0,2.542,143.0,,'11111222,11111222,99999999' 
WAVCIS,ioos:station:WAVCIS:CSI06:1,2011-02-06T17:00:00Z,28.8667,-90.4833,10.0,3.64,129.0,,'11111222,11111222,99999999' 
WAVCIS,ioos:station:WAVCIS:CSI06:1,2011-02-06T18:00:00Z,28.8667,-90.4833,10.0,6.781,108.0,,'11111222,11111222,99999999' 
WAVCIS,ioos:station:WAVCIS:CSI06:1,2011-02-06T19:00:00Z,28.8667,-90.4833,10.0,6.87,105.0,,'11111222,11111222,99999999' 
WAVCIS,ioos:station:WAVCIS:CSI06:1,2011-02-06T20:00:00Z,28.8667,-90.4833,10.0,6.344,105.0,,'11111222,11111222,99999999' 
WAVCIS,ioos:station:WAVCIS:CSI06:1,2011-02-06T21:00:00Z,28.8667,-90.4833,10.0,6.499,130.0,,'11111222,11111222,99999999' 
WAVCIS,ioos:station:WAVCIS:CSI06:1,2011-02-06T22:00:00Z,28.8667,-90.4833,10.0,6.178,126.0,,'11111222,11111222,99999999' 
WAVCIS,ioos:station:WAVCIS:CSI06:1,2011-02-06T23:00:00Z,28.8667,-90.4833,10.0,7.67,122.0,,'11111222,11111222,99999999' 
WAVCIS,ioos:station:WAVCIS:CSI06:1,2011-02-07T00:00:00Z,28.8667,-90.4833,10.0,9.33,118.0,,'11111222,11111222,99999999' 
WAVCIS,ioos:station:WAVCIS:CSI06:1,2011-02-07T01:00:00Z,28.8667,-90.4833,10.0,9.91,120.0,,'11111222,11111222,99999999' 
WAVCIS,ioos:station:WAVCIS:CSI06:1,2011-02-07T02:00:00Z,28.8667,-90.4833,10.0,10.41,130.0,,'11111222,11111222,99999999' 
WAVCIS,ioos:station:WAVCIS:CSI06:1,2011-02-07T03:00:00Z,28.8667,-90.4833,10.0,9.37,125.0,,'11111222,11111222,99999999' 
WAVCIS,ioos:station:WAVCIS:CSI06:1,2011-02-07T04:00:00Z,28.8667,-90.4833,10.0,9.13,131.0,,'11111222,11111222,99999999' 
WAVCIS,ioos:station:WAVCIS:CSI06:1,2011-02-07T05:00:00Z,28.8667,-90.4833,10.0,7.97,139.0,,'11111222,11111222,99999999' 
WAVCIS,ioos:station:WAVCIS:CSI06:1,2011-02-07T06:00:00Z,28.8667,-90.4833,10.0,8.29,138.0,,'11111222,11111222,99999999' 
WAVCIS,ioos:station:WAVCIS:CSI06:1,2011-02-07T07:00:00Z,28.8667,-90.4833,10.0,5.919,142.0,,'11111222,11111222,99999999' 
WAVCIS,ioos:station:WAVCIS:CSI06:1,2011-02-07T08:00:00Z,28.8667,-90.4833,10.0,6.515,156.0,,'11111222,11111222,99999999' 
WAVCIS,ioos:station:WAVCIS:CSI06:1,2011-02-07T09:00:00Z,28.8667,-90.4833,10.0,4.5,139.0,,'11111222,11111222,99999999' 
WAVCIS,ioos:station:WAVCIS:CSI06:1,2011-02-07T10:00:00Z,28.8667,-90.4833,10.0,4.793,161.0,,'11111222,11111222,99999999' 
WAVCIS,ioos:station:WAVCIS:CSI06:1,2011-02-07T11:00:00Z,28.8667,-90.4833,10.0,3.008,194.0,,'11111222,11111222,99999999' 
WAVCIS,ioos:station:WAVCIS:CSI06:1,2011-02-07T12:00:00Z,28.8667,-90.4833,10.0,5.677,236.0,,'11111222,11111222,99999999' 
WAVCIS,ioos:station:WAVCIS:CSI06:1,2011-02-07T13:00:00Z,28.8667,-90.4833,10.0,9.47,293.0,,'11111222,11111222,99999999' 
WAVCIS,ioos:station:WAVCIS:CSI06:1,2011-02-07T14:00:00Z,28.8667,-90.4833,10.0,12.8,300.0,,'11111222,11111222,99999999' 
WAVCIS,ioos:station:WAVCIS:CSI06:1,2011-02-07T15:00:00Z,28.8667,-90.4833,10.0,15.36,300.0,,'11111222,11111222,99999999' 
WAVCIS,ioos:station:WAVCIS:CSI06:1,2011-02-07T16:00:00Z,28.8667,-90.4833,10.0,14.7,291.0,,'11111222,11111222,99999999' 
WAVCIS,ioos:station:WAVCIS:CSI06:1,2011-02-07T17:00:00Z,28.8667,-90.4833,10.0,17.04,296.0,,'11111222,11111222,99999999' 
WAVCIS,ioos:station:WAVCIS:CSI06:1,2011-02-07T18:00:00Z,28.8667,-90.4833,10.0,17.1,302.0,,'11111222,11111222,99999999' 
WAVCIS,ioos:station:WAVCIS:CSI06:1,2011-02-07T19:00:00Z,28.8667,-90.4833,10.0,17.69,312.0,,'11111222,11111222,99999999' 
WAVCIS,ioos:station:WAVCIS:CSI06:1,2011-02-07T20:00:00Z,28.8667,-90.4833,10.0,15.89,317.0,,'11111222,11111222,99999999' 
WAVCIS,ioos:station:WAVCIS:CSI06:1,2011-02-07T21:00:00Z,28.8667,-90.4833,10.0,15.76,317.0,,'11111222,11111222,99999999' 
WAVCIS,ioos:station:WAVCIS:CSI06:1,2011-02-07T22:00:00Z,28.8667,-90.4833,10.0,14.22,314.0,,'11111222,11111222,99999999' 
WAVCIS,ioos:station:WAVCIS:CSI06:1,2011-02-07T23:00:00Z,28.8667,-90.4833,10.0,13.3,325.0,,'11111222,11111222,99999999' 
WAVCIS,ioos:station:WAVCIS:CSI06:1,2011-02-08T00:00:00Z,28.8667,-90.4833,10.0,13.34,328.0,,'11111222,11111222,99999999' 
WAVCIS,ioos:station:WAVCIS:CSI06:1,2011-02-08T01:00:00Z,28.8667,-90.4833,10.0,12.99,333.0,,'11111222,11111222,99999999' 
WAVCIS,ioos:station:WAVCIS:CSI06:1,2011-02-08T02:00:00Z,28.8667,-90.4833,10.0,11.12,335.0,,'11111222,11111222,99999999' 
WAVCIS,ioos:station:WAVCIS:CSI06:1,2011-02-08T03:00:00Z,28.8667,-90.4833,10.0,8.42,349.0,,'11111222,11111222,99999999' 
WAVCIS,ioos:station:WAVCIS:CSI06:1,2011-02-08T04:00:00Z,28.8667,-90.4833,10.0,11.91,10.0,,'11111222,11111222,99999999' 
WAVCIS,ioos:station:WAVCIS:CSI06:1,2011-02-08T05:00:00Z,28.8667,-90.4833,10.0,12.13,15.0,,'11111222,11111222,99999999' 
WAVCIS,ioos:station:WAVCIS:CSI06:1,2011-02-08T06:00:00Z,28.8667,-90.4833,10.0,10.28,24.0,,'11111222,11111222,99999999' 
WAVCIS,ioos:station:WAVCIS:CSI06:1,2011-02-08T07:00:00Z,28.8667,-90.4833,10.0,8.96,16.0,,'11111222,11111222,99999999' 
WAVCIS,ioos:station:WAVCIS:CSI06:1,2011-02-08T08:00:00Z,28.8667,-90.4833,10.0,7.29,24.0,,'11111222,11111222,99999999' 
WAVCIS,ioos:station:WAVCIS:CSI06:1,2011-02-08T09:00:00Z,28.8667,-90.4833,10.0,4.657,34.0,,'11111222,11111222,99999999' 
WAVCIS,ioos:station:WAVCIS:CSI06:1,2011-02-08T10:00:00Z,28.8667,-90.4833,10.0,4.628,28.0,,'11111222,11111222,99999999' 
WAVCIS,ioos:station:WAVCIS:CSI06:1,2011-02-08T11:00:00Z,28.8667,-90.4833,10.0,5.322,32.0,,'11111222,11111222,99999999' 
WAVCIS,ioos:station:WAVCIS:CSI06:1,2011-02-08T12:00:00Z,28.8667,-90.4833,10.0,5.274,37.0,,'11111222,11111222,99999999' 
WAVCIS,ioos:station:WAVCIS:CSI06:1,2011-02-08T13:00:00Z,28.8667,-90.4833,10.0,7.09,30.0,,'11111222,11111222,99999999' 
WAVCIS,ioos:station:WAVCIS:CSI06:1,2011-02-08T14:00:00Z,28.8667,-90.4833,10.0,4.556,43.0,,'11111222,11111222,99999999' 
WAVCIS,ioos:station:WAVCIS:CSI06:1,2011-02-08T15:00:00Z,28.8667,-90.4833,10.0,3.956,46.0,,'11111222,11111222,99999999' 
WAVCIS,ioos:station:WAVCIS:CSI06:1,2011-02-08T16:00:00Z,28.8667,-90.4833,10.0,5.931,46.0,,'11111222,11111222,99999999' 
WAVCIS,ioos:station:WAVCIS:CSI06:1,2011-02-08T17:00:00Z,28.8667,-90.4833,10.0,6.055,40.0,,'11111222,11111222,99999999' 
WAVCIS,ioos:station:WAVCIS:CSI06:1,2011-02-08T18:00:00Z,28.8667,-90.4833,10.0,4.382,53.0,,'11111222,11111222,99999999' 
WAVCIS,ioos:station:WAVCIS:CSI06:1,2011-02-08T19:00:00Z,28.8667,-90.4833,10.0,5.487,61.0,,'11111222,11111222,99999999' 
WAVCIS,ioos:station:WAVCIS:CSI06:1,2011-02-08T20:00:00Z,28.8667,-90.4833,10.0,6.345,62.0,,'11111222,11111222,99999999' 
WAVCIS,ioos:station:WAVCIS:CSI06:1,2011-02-08T21:00:00Z,28.8667,-90.4833,10.0,6.564,61.0,,'11111222,11111222,99999999' 
WAVCIS,ioos:station:WAVCIS:CSI06:1,2011-02-08T22:00:00Z,28.8667,-90.4833,10.0,8.09,64.0,,'11111222,11111222,99999999' 
WAVCIS,ioos:station:WAVCIS:CSI06:1,2011-02-08T23:00:00Z,28.8667,-90.4833,10.0,8.53,61.0,,'11111222,11111222,99999999' 
WAVCIS,ioos:station:WAVCIS:CSI06:1,2011-02-09T00:00:00Z,28.8667,-90.4833,10.0,9.25,65.0,,'11111222,11111222,99999999' 
WAVCIS,ioos:station:WAVCIS:CSI06:1,2011-02-09T01:00:00Z,28.8667,-90.4833,10.0,10.64,66.0,,'11111222,11111222,99999999' 
WAVCIS,ioos:station:WAVCIS:CSI06:1,2011-02-09T02:00:00Z,28.8667,-90.4833,10.0,8.9,89.0,,'11111222,11111222,99999999' 
WAVCIS,ioos:station:WAVCIS:CSI06:1,2011-02-09T03:00:00Z,28.8667,-90.4833,10.0,8.52,97.0,,'11111222,11111222,99999999' 
WAVCIS,ioos:station:WAVCIS:CSI06:1,2011-02-09T04:00:00Z,28.8667,-90.4833,10.0,8.13,84.0,,'11111222,11111222,99999999' 
WAVCIS,ioos:station:WAVCIS:CSI06:1,2011-02-09T05:00:00Z,28.8667,-90.4833,10.0,8.93,73.0,,'11111222,11111222,99999999' 
WAVCIS,ioos:station:WAVCIS:CSI06:1,2011-02-09T06:00:00Z,28.8667,-90.4833,10.0,8.75,93.0,,'11111222,11111222,99999999' 